This demonstration page uses our WeatherBlox Daily Observations layout. Learn more.

Hourly Observations for March 13, 2019

Temp ( °F °C ) Dew Point ( °F °C ) Humidity (%) Winds ( mph kmh ) Pressure ( in mb ) Visibility ( mi km ) Precip ( " mm )
12:15 am 00:15 Cloudy with Nearby Thunderstorms 48 9 48 9 100 100 SSE 7 11 29.61 1003 0.5 0.80467 0 0
12:35 am 00:35 Cloudy with Nearby Thunderstorms 48 9 48 9 100 100 S 5 7 29.59 1002 0.25 0.402335 0 0
12:55 am 00:55 Cloudy with Heavy Thunderstorms 48 8.8 48 8.8 100 100 S 5 7 29.58 1002 0.25 0.402335 0.01 0.254
1:15 am 01:15 Cloudy with Thunderstorms 48 8.7 48 8.7 100 100 SSE 3 6 29.56 1001 0.5 0.80467 0.06 1.524
1:35 am 01:35 Cloudy with Light Thunderstorms 47 8.5 47 8.5 100 100 SSE 7 11 29.57 1001 0.25 0.402335 0.06 1.524
1:50 am 01:50 Cloudy with Nearby Thunderstorms 47 8.4 47 8.4 100 100 SSE 6 9 29.56 1001 0.25 0.402335 0.06 1.524
2:15 am 02:15 Cloudy with Light Thunderstorms 47 8.5 47 8.5 100 100 SSE 9 15 29.54 1000 0.25 0.402335 0.01 0.254
2:35 am 02:35 Cloudy with Nearby Thunderstorms 47 8.1 47 8.1 100 100 SSE 6 9 29.54 1000 0.25 0.402335 0.01 0.254
2:55 am 02:55 Cloudy with Light Thunderstorms 46 8 46 8 100 100 SE 6 9 29.52 1000 0.25 0.402335 0.01 0.254
3:15 am 03:15 Cloudy with Thunderstorms 46 8 46 8 100 100 Calm 29.52 1000 0.25 0.402335 0 0
3:35 am 03:35 Cloudy with Light Rain 47 8.1 47 8.1 100 100 Calm 29.5 999 0.25 0.402335 0.01 0.254
3:55 am 03:55 Cloudy with Heavy Thunderstorms 45 7 45 7 100 100 NNW 3 6 29.51 999 0.5 0.80467 0.07 1.778
4:15 am 04:15 Cloudy with Heavy Thunderstorms 45 7.1 45 7.1 100 100 NW 6 9 29.51 999 1.25 2.011675 0.12 3.048
4:35 am 04:35 Cloudy with Heavy Thunderstorms 44 6.8 44 6.8 100 100 NNE 10 17 29.47 998 1 1.60934 0.31 7.874
4:55 am 04:55 Cloudy with Thunderstorms 44 6.8 44 6.8 100 100 NE 10 17 29.45 997 1.75 2.816345 0.37 9.398
5:15 am 05:15 Cloudy with Nearby Thunderstorms 44 6.5 44 6.5 100 100 ENE 12 19 29.44 997 1.25 2.011675 0.01 0.254
5:35 am 05:35 Cloudy with Light Rain 44 6.5 44 6.5 100 100 ENE 14 22 29.42 996 1.25 2.011675 0.04 1.016
5:55 am 05:55 Cloudy with Light Rain 43 6.1 43 6.1 100 100 ENE 14 22 29.42 996 2 3.21868 0.07 1.778
6:15 am 06:15 Cloudy with Light Rain 43 5.9 43 5.9 100 100 ENE 14 22 29.4 996 2.5 4.02335 0.06 1.524
6:35 am 06:35 Cloudy with Rain 42 5.6 42 5.6 100 100 ENE 14 22 29.38 995 2.5 4.02335 0.08 2.032
6:55 am 06:55 Cloudy with Rain 42 5.5 42 5.5 100 100 ENE 12 19 29.36 994 1.5 2.41401 0.13 3.302
7:15 am 07:15 Cloudy with Rain 42 5.7 42 5.7 100 100 ENE 15 24 29.35 994 3 4.82802 0.09 2.286
7:35 am 07:35 Cloudy with Rain 43 6 43 6 100 100 ENE 14 22 29.33 993 2 3.21868 0.17 4.318
7:55 am 07:55 Cloudy with Rain 42 5.8 42 5.8 100 100 ENE 14 22 29.31 993 1.75 2.816345 0.24 6.096
8:15 am 08:15 Cloudy with Light Rain 42 5.7 42 5.7 100 100 ENE 15 24 29.29 992 3 4.82802 0.05 1.27
8:35 am 08:35 Cloudy with Rain 43 6.2 43 6.2 100 100 ENE 16 26 29.26 991 1.75 2.816345 0.09 2.286
8:55 am 08:55 Cloudy with Rain 44 6.5 44 6.5 100 100 ENE 15 24 29.23 990 1.25 2.011675 0.19 4.826
9:15 am 09:15 Cloudy with Light Rain 46 7.8 46 7.8 100 100 E 16 26 29.2 989 0.5 0.80467 0.03 0.762
9:35 am 09:35 Cloudy with Rain 49 9.3 49 9.3 100 100 ESE 20 31 29.18 988 2.5 4.02335 0.08 2.032
9:55 am 09:55 Cloudy with Light Rain 49 9.5 49 9.5 100 100 ESE 18 30 29.16 987 3 4.82802 0.13 3.302
10:15 am 10:15 Cloudy with Light Rain 49 9.7 49 9.7 100 100 E 21 33 29.09 985 10 16.0934 0.01 0.254
10:35 am 10:35 Cloudy with Light Rain 50 10 50 10 100 100 E 30 48 29.01 982 10 16.0934 0.01 0.254
10:55 am 10:55 Cloudy 50 10.1 50 10.1 100 100 SE 26 43 29.09 985 10 16.0934 0.01 0.254
11:15 am 11:15 Cloudy 51 10.3 51 10.3 100 100 SE 22 35 29.07 984 10 16.0934 0 0
11:35 am 11:35 Cloudy with Light Rain 51 10.5 51 10.5 100 100 SE 23 37 29.06 984 1.75 2.816345 0 0
11:55 am 11:55 Cloudy with Light Rain 51 10.5 51 10.5 100 100 SE 23 37 29.03 983 1.75 2.816345 0.01 0.254
12:15 pm 12:15 Cloudy 51 10.7 51 10.7 100 100 SE 24 39 29.02 983 7 11.26538 0 0
12:35 pm 12:35 Cloudy 50 10.2 50 10.2 100 100 SSE 15 24 29.01 982 7 11.26538 0.01 0.254
12:55 pm 12:55 Mostly Cloudy 52 11.2 52 11.2 100 100 SSE 17 28 29 982 10 16.0934 0.01 0.254
1:15 pm 13:15 Mostly Cloudy 52 11.2 52 11.2 100 100 SSE 20 31 29 982 10 16.0934 0 0
1:35 pm 13:35 Mostly Cloudy 55 12.7 54 12.2 97 97 SSE 23 37 28.99 982 10 16.0934 0 0
1:55 pm 13:55 Mostly Cloudy 56 13.6 50 10.2 80 80 SSE 23 37 28.98 981 10 16.0934 0 0
2:15 pm 14:15 Mostly Cloudy 56 13.1 49 9.2 77 77 SSE 20 31 28.98 981 10 16.0934 0 0
2:35 pm 14:35 Mostly Cloudy 56 13.6 49 9.5 76 76 S 26 43 28.96 981 10 16.0934 0 0
2:55 pm 14:55 Partly Cloudy 56 13.6 46 7.7 68 68 S 25 41 28.96 981 10 16.0934 0 0
3:15 pm 15:15 Mostly Cloudy 56 13.5 47 8.2 71 71 S 17 28 28.96 981 10 16.0934 0 0
3:35 pm 15:35 Partly Cloudy 56 13.1 44 6.8 66 66 SSE 20 31 28.96 981 10 16.0934 0 0
3:55 pm 15:55 Mostly Cloudy 56 13.3 44 6.6 64 64 SSE 22 35 28.95 981 10 16.0934 0 0
4:15 pm 16:15 Cloudy 54 12.3 44 6.6 68 68 S 16 26 28.97 981 10 16.0934 0 0
4:35 pm 16:35 Cloudy with Light Rain 53 11.5 45 7 74 74 S 14 22 28.98 981 10 16.0934 0 0
4:55 pm 16:55 Cloudy 50 10.1 46 7.6 85 85 SE 13 20 28.99 982 10 16.0934 0 0
5:15 pm 17:15 Cloudy 50 10 46 7.7 86 86 ESE 14 22 28.98 981 10 16.0934 0 0
5:35 pm 17:35 Cloudy with Rain 49 9.2 46 8 92 92 ESE 8 13 29 982 4 6.43736 0.05 1.27
5:55 pm 17:55 Cloudy with Light Rain 48 9 47 8.2 95 95 ESE 12 19 28.99 982 10 16.0934 0.07 1.778
6:15 pm 18:15 Cloudy with Rain 47 8.6 47 8.2 97 97 E 8 13 28.98 982 10 16.0934 0.03 0.762
6:35 pm 18:35 Cloudy with Light Rain 47 8.6 47 8.5 99 99 E 14 22 28.97 981 7 11.26538 0.06 1.524
6:55 pm 18:55 Cloudy with Light Rain 47 8.6 47 8.2 97 97 E 14 22 28.96 981 7 11.26538 0.08 2.032
7:15 pm 19:15 Cloudy with Light Rain 47 8.5 47 8.2 98 98 ENE 16 26 28.96 981 10 16.0934 0.02 0.508
7:35 pm 19:35 Cloudy with Light Rain 47 8.5 47 8.3 99 99 E 15 24 28.96 981 7 11.26538 0.05 1.27
7:55 pm 19:55 Cloudy with Rain 47 8.1 47 8.1 100 100 N 13 20 28.96 981 7 11.26538 0.11 2.794
8:15 pm 20:15 Cloudy with Heavy Rain 41 4.8 40 4.7 99 99 N 25 41 29 982 5 8.0467 0.06 1.524
8:35 pm 20:35 Cloudy with Light Rain 36 2.2 36 2.1 99 99 N 29 46 29.03 983 1.25 2.011675 0.26 6.604
8:55 pm 20:55 Cloudy with Rain 35 1.7 35 1.7 100 100 N 33 54 29.05 984 3 4.82802 0.34 8.636
9:15 pm 21:15 Cloudy with Rain 35 1.5 35 1.5 100 100 N 30 48 29.06 984 4 6.43736 0.04 1.016
9:35 pm 21:35 Cloudy with Rain 34 1.1 34 1 99 99 NNW 32 52 29.07 984 2 3.21868 0.13 3.302
9:55 pm 21:55 Cloudy with Rain 33 0.8 33 0.7 99 99 NNW 32 52 29.08 985 3 4.82802 0.18 4.572
10:15 pm 22:15 Cloudy with Rain 33 0.3 32 0.1 99 99 N 32 52 29.1 985 5 8.0467 0.03 0.762
10:35 pm 22:35 Windy with Snow Likely 32 0 32 -0.1 99 99 NNW 32 52 29.11 986 4 6.43736 0.04 1.016
10:55 pm 22:55 Windy with Snow Likely 32 0 31 -0.5 96 96 NNW 32 52 29.13 987 3 4.82802 0.06 1.524
11:15 pm 23:15 Windy with Snow Likely 32 -0.2 31 -0.7 96 96 NNW 31 50 29.14 987 2 3.21868 0.01 0.254
11:35 pm 23:35 Windy with Snow Likely 31 -0.3 31 -0.8 96 96 NNW 33 54 29.15 987 1.75 2.816345 0.02 0.508
11:55 pm 23:55 Windy with Snow Likely 31 -0.5 30 -1 96 96 NNW 30 48 29.18 988 1.25 2.011675 0.04 1.016

Powered by AerisWeather